Weather observations for the past three days for
Charlotte, Charlotte / Douglas International Airport
Imperial (Metric)
Date Time (edt) Wind (mph) Vis. (mi.) Weather Sky Cond. Temperature (ºF) Relative Humidity Wind Chill (°F) Heat Index (°F) Pressure Precipitation (in)
Air Dwpt 6 hour altimeter (in) sea level (mb) 1 hr 3 hr 6 hr
Max. Min.
22 21:52 S 5 10.00 A Few Clouds FEW060 84.9 64 50% 86 30.02 1016.9
22 20:52 S 7 10.00 A Few Clouds FEW060 FEW090 88 63 43% 89 30.01 1016.7
22 19:52 S 8 10.00 A Few Clouds FEW060 FEW090 90 64 93.9 89.1 42% 91 30.01 1016.6
22 18:52 SW 6 10.00 Partly Cloudy SCT060 SCT090 91.9 64 40% 94 30.01 1016.6
22 17:52 W 7 10.00 Partly Cloudy SCT060 SCT090 93 64 38% 95 30.02 1016.8
22 16:52 S 3 10.00 Partly Cloudy SCT055 91.9 66 43% 95 30.03 1017.4
22 15:52 Calm 10.00 Mostly Cloudy SCT050 BKN070 91.9 66.9 44% 95 30.05 1018.1
22 14:52 S 8 10.00 Mostly Cloudy BKN050 BKN060 91 66 44% 94 30.08 1018.9
22 13:52 S 9 10.00 Mostly Cloudy SCT047 BKN060 90 64.9 91 75.9 44% 92 30.1 1019.8
22 12:52 S 10 G 17 10.00 Mostly Cloudy BKN040 BKN050 87.1 66.9 51% 90 30.13 1020.8
22 11:52 Vrbl 6 10.00 Mostly Cloudy FEW028 BKN035 BKN047 86 69.1 57% 90 30.15 1021.5
22 10:52 S 6 10.00 Mostly Cloudy FEW020 BKN033 BKN045 84.9 69.1 59% 89 30.17 1021.9
22 09:52 SW 6 10.00 Mostly Cloudy BKN020 82 70 67% 86 30.17 1022.1
22 08:52 Calm 10.00 Partly Cloudy SCT010 SCT250 80.1 70 71% 83 30.17 1022.2
22 07:52 Calm 10.00 A Few Clouds FEW010 FEW150 FEW250 75.9 69.1 78.1 72 79% 77 30.17 1022.1
22 06:52 Calm 9.00 A Few Clouds FEW010 73.9 69.1 85% 30.16 1021.8
22 05:52 Calm 9.00 A Few Clouds FEW010 73 69.1 87% 30.15 1021.4
22 04:52 SE 3 10.00 A Few Clouds FEW010 75 70 84% 75 30.16 1021.7
22 03:52 S 3 10.00 A Few Clouds FEW015 75 69.1 82% 75 30.16 1021.9
22 02:52 Calm 10.00 A Few Clouds FEW015 75.9 69.1 79% 77 30.18 1022.3
22 01:52 S 7 10.00 Fair CLR 78.1 68 88 77 71% 80 30.18 1022.5
22 00:52 SE 5 10.00 Fair CLR 78.1 63 60% 80 30.19 1022.7
21 23:52 SE 3 10.00 A Few Clouds FEW250 80.1 62.1 54% 81 30.18 1022.5
21 22:52 Calm 10.00 Fair CLR 81 62.1 53% 82 30.17 1022.1
21 21:52 SE 3 10.00 A Few Clouds FEW250 84 61 46% 84 30.16 1021.9
21 20:52 E 5 10.00 A Few Clouds FEW250 86 59 40% 85 30.15 1021.5
21 19:52 E 5 10.00 Fair CLR 88 59 91 87.1 38% 87 30.15 1021.4
21 18:52 E 8 10.00 A Few Clouds FEW050 89.1 60.1 38% 89 30.16 1021.8
21 17:52 Calm 10.00 A Few Clouds FEW060 90 59 35% 89 30.16 1021.7
21 16:52 Calm 10.00 A Few Clouds FEW060 90 60.1 37% 90 30.18 1022.3
21 15:52 E 8 10.00 Partly Cloudy SCT060 89.1 60.1 38% 89 30.19 1022.7
21 14:52 NE 6 10.00 Partly Cloudy SCT055 90 61 38% 90 30.21 1023.5
21 13:52 Vrbl 6 10.00 Partly Cloudy SCT055 88 61 89.1 73.9 40% 88 30.23 1024.1
21 12:52 E 5 10.00 Mostly Cloudy BKN049 BKN250 84.9 61 45% 85 30.26 1025.0
21 11:52 Vrbl 3 10.00 A Few Clouds FEW043 FEW250 84 63 49% 85 30.27 1025.3
21 10:52 Calm 10.00 A Few Clouds FEW040 FEW250 82 63 53% 83 30.28 1025.9
21 09:52 Calm 10.00 A Few Clouds FEW250 78.1 62.1 58% 80 30.29 1026.1
21 08:52 W 5 10.00 A Few Clouds FEW250 75.9 64 67% 78 30.29 1026.2
21 07:52 N 3 10.00 A Few Clouds FEW250 73.9 64 73.9 66.9 71% 30.29 1026.1
21 06:52 Calm 10.00 Fair CLR 69.1 62.1 78% 30.28 1026.1
21 05:52 Calm 10.00 Fair CLR 70 62.1 76% 30.28 1025.9
21 04:52 Calm 10.00 Fair CLR 71.1 62.1 73% 30.26 1025.3
21 03:52 SE 3 10.00 Fair CLR 72 62.1 71% 30.27 1025.4
21 02:52 SE 5 10.00 Fair CLR 73 61 66% 30.27 1025.5
21 01:52 Calm 10.00 Fair CLR 73 62.1 84.9 73 69% 30.27 1025.4
21 00:52 Calm 10.00 A Few Clouds FEW250 75.9 61 60% 78 30.27 1025.6
20 23:52 Calm 10.00 A Few Clouds FEW250 79 60.1 52% 80 30.28 1025.7
20 22:52 E 6 10.00 Fair CLR 81 59 47% 81 30.28 1025.8
20 21:52 E 6 10.00 A Few Clouds FEW250 82.9 57 41% 82 30.27 1025.5
20 20:52 E 7 10.00 Partly Cloudy FEW055 SCT250 84 55.9 38% 83 30.26 1025.3
20 19:52 E 7 10.00 Partly Cloudy FEW055 SCT250 84.9 59 89.1 84 42% 85 30.26 1025.3
20 18:52 E 7 10.00 Mostly Cloudy FEW055 BKN250 86 59 40% 85 30.26 1025.1
20 17:52 E 7 10.00 Mostly Cloudy FEW055 SCT070 BKN250 86 60.1 42% 86 30.26 1025.3
20 16:52 E 8 10.00 Partly Cloudy FEW050 FEW060 SCT250 89.1 62.1 41% 89 30.28 1025.7
20 15:52 Vrbl 6 10.00 Partly Cloudy FEW048 SCT060 SCT250 87.1 62.1 43% 88 30.29 1026.3
20 14:52 Vrbl 3 10.00 Mostly Cloudy FEW049 SCT060 BKN250 87.1 60.1 40% 87 30.31 1026.9
20 13:52 E 7 10.00 Mostly Cloudy SCT046 BKN060 BKN250 84 62.1 86 73.9 48% 85 30.34 1027.7
20 12:52 Calm 10.00 Mostly Cloudy BKN044 BKN060 BKN250 82.9 63 51% 84 30.35 1028.3
20 11:52 Vrbl 3 10.00 Mostly Cloudy BKN040 BKN060 BKN250 84 63 49% 85 30.37 1028.8
20 10:52 E 6 10.00 Partly Cloudy FEW036 SCT060 SCT250 81 63 54% 82 30.37 1028.8
20 09:52 Calm 10.00 Mostly Cloudy FEW035 SCT060 BKN250 79 62.1 56% 80 30.37 1028.7
20 08:52 NW 3 10.00 A Few Clouds FEW250 77 64 64% 79 30.37 1028.8
20 07:52 N 5 10.00 A Few Clouds FEW250 73 64.9 75 66.9 76% 30.35 1028.4
20 06:52 N 3 10.00 A Few Clouds FEW250 69.1 63 81% 30.34 1028.1
20 05:52 Calm 10.00 A Few Clouds FEW250 69.1 63 81% 30.34 1027.8
20 04:52 Calm 10.00 A Few Clouds FEW250 69.1 62.1 78% 30.31 1027.1
20 03:52 Calm 10.00 Mostly Cloudy BKN250 72 63 73% 30.3 1026.6
20 02:52 S 6 10.00 Mostly Cloudy BKN250 73 62.1 69% 30.29 1026.3
20 01:52 SE 5 10.00 Mostly Cloudy BKN250 75 62.1 84 75 64% 77 30.29 1026.3
20 00:52 E 7 10.00 Mostly Cloudy BKN250 78.1 61 56% 80 30.29 1026.2
19 23:52 NE 7 10.00 Mostly Cloudy BKN250 79 61 54% 80 30.3 1026.5
19 22:52 NE 8 10.00 Mostly Cloudy BKN250 81 61 51% 82 30.3 1026.6
Date Time (edt) Wind (mph) Vis. (mi.) Weather Sky Cond. Air Dwpt Max. Min. Relative Humidity Wind Chill (°F) Heat Index (°F) altimeter (in) sea level (mb) 1 hr 3 hr 6 hr
6 hour
Temperature (ºF) Pressure Precipitation (in)